Weather History for Charlottetown, P. E. I., Prince Edward Island

Change the Weather History Date:

Wednesday, March 5, 2014

  Actual Average Record
Temperature  
Mean Temperature 2 °F -  
Max Temperature 9 °F 35 °F - ()
Min Temperature -4 °F 21 °F - ()
Degree Days  
Heating Degree Days 62    
Moisture  
Dew Point -7 °F    
Average Humidity 58    
Maximum Humidity 73    
Minimum Humidity 30    
Precipitation  
Precipitation 0.00 in 0.12 in - ()
Sea Level Pressure  
Sea Level Pressure 30.34 in    
Wind  
Wind Speed 6 mph ()    
Max Wind Speed 9 mph    
Max Gust Speed -    
Visibility 15.0 miles    
Events      
T = Trace of Precipitation, MM = Missing Value Source: Averaged Metar Reports

Daily Weather History Graph

Daily Weather History Graph

Search for Another Location

Airport:

Trip Planner

Search our weather history database for the weather conditions in past years. The results will help you decide how hot, cold, wet, or windy it might be!

Date:

Astronomy

Mar. 05, 2014 Rise Set
Actual Time 6:44 AM AST 6:04 PM AST
Civil Twilight 6:14 AM AST 6:34 PM AST
Nautical Twilight 5:39 AM AST 7:09 PM AST
Astronomical Twilight 5:04 AM AST 7:44 PM AST
Moon 8:50 AM AST (3/5) 11:27 PM AST (3/5)
Length of Visible Light 12h 20m
Length of Day
11h 19m
Waxing Crescent, 22% of the Moon is Illuminated
Mar 5
Waxing Crescent
Mar 8
First Quarter
Mar 16
Full
Mar 23
Last Quarter
Mar 30
New

Hourly Weather History & Observations

Time (AST) Temp. Windchill Dew Point Humidity Pressure Visibility Wind Dir Wind Speed Gust Speed Precip Events Conditions
12:00 AM 8.6 °F -3.7 °F 1.4 °F 73% 30.30 in 15.0 mi North 8.1 mph - N/A   Overcast
1:00 AM 8.6 °F -3.7 °F 1.4 °F 73% 30.30 in 15.0 mi North 8.1 mph - N/A   Overcast
2:00 AM 7 °F - -3 °F 50% 30.32 in 15 mi NNW 5.8 mph - -   Overcast
2:00 AM 6.8 °F -4.8 °F -2.2 °F 67% 30.32 in 15.0 mi NNW 6.9 mph - N/A   Overcast
3:00 AM 6.8 °F -5.9 °F -4.0 °F 61% 30.32 in 15.0 mi NW 8.1 mph - N/A   Overcast
4:00 AM 5.0 °F -4.1 °F -5.8 °F 61% 30.32 in 15.0 mi WNW 4.6 mph - N/A   Overcast
5:00 AM 3.2 °F -9.1 °F -7.6 °F 61% 30.33 in 15.0 mi West 6.9 mph - N/A   Overcast
6:00 AM 3.2 °F -9.1 °F -7.6 °F 61% 30.34 in 15.0 mi West 6.9 mph - N/A   Overcast
7:00 AM 1.4 °F -11.3 °F -7.6 °F 66% 30.36 in 15.0 mi WNW 6.9 mph - N/A   Mostly Cloudy
8:00 AM 2 °F - -8 °F 49% 30.36 in 15 mi WNW 6.9 mph - -   Scattered Clouds
8:00 AM 1.4 °F -11.3 °F -7.6 °F 66% 30.36 in 15.0 mi WNW 6.9 mph - N/A   Scattered Clouds
9:00 AM 3.2 °F -10.3 °F -5.8 °F 66% 30.37 in 15.0 mi WNW 8.1 mph - N/A   Scattered Clouds
10:00 AM 5.0 °F -9.1 °F -5.8 °F 61% 30.37 in 15.0 mi NW 9.2 mph - N/A   Partly Cloudy
11:00 AM 5.0 °F -9.1 °F -4.0 °F 66% 30.37 in 15.0 mi WNW 9.2 mph - N/A   Partly Cloudy
12:00 PM 6.8 °F -4.8 °F -7.6 °F 52% 30.36 in 15.0 mi NNW 6.9 mph - N/A   Partly Cloudy
1:00 PM 6.8 °F -3.5 °F -7.6 °F 52% 30.35 in 15.0 mi NW 5.8 mph - N/A   Partly Cloudy
2:00 PM 8 °F - -9 °F 30% 30.34 in 15 mi NNW 4.6 mph - -   Scattered Clouds
2:00 PM 8.6 °F -1.3 °F -9.4 °F 44% 30.34 in 15.0 mi NW 5.8 mph - N/A   Partly Cloudy
3:00 PM 8.6 °F -2.6 °F -11.2 °F 40% 30.33 in 15.0 mi NW 6.9 mph - N/A   Partly Cloudy
4:00 PM 8.6 °F -1.3 °F -9.4 °F 44% 30.32 in 15.0 mi NNW 5.8 mph - N/A   Partly Cloudy
5:00 PM 6.8 °F -3.5 °F -9.4 °F 48% 30.32 in 15.0 mi NW 5.8 mph - N/A   Scattered Clouds
6:00 PM 5.0 °F - -9.4 °F 52% 30.33 in 15.0 mi NW 2.3 mph - N/A   Mostly Cloudy
7:00 PM -0.4 °F -8.3 °F -9.4 °F 66% 30.35 in 15.0 mi WNW 3.5 mph - N/A   Mostly Cloudy
8:00 PM -1 °F - -10 °F 50% 30.34 in 15 mi West 3.5 mph - -   Partly Cloudy
8:00 PM -0.4 °F -8.3 °F -11.2 °F 60% 30.34 in 15.0 mi West 3.5 mph - N/A   Scattered Clouds
9:00 PM -4.0 °F -12.4 °F -13.0 °F 65% 30.33 in 15.0 mi WSW 3.5 mph - N/A   Scattered Clouds
10:00 PM -4.0 °F -14.6 °F -11.2 °F 71% 30.33 in 15.0 mi West 4.6 mph - N/A   Scattered Clouds
11:00 PM -0.4 °F -13.4 °F -13.0 °F 55% 30.33 in 15.0 mi SW 6.9 mph - N/A   Partly Cloudy